Location: Gleizolles
(44.4833°N, 6.7667°E)
Time: 17:02:55
(UTC+00:00)

Tiros 1 - Pass Details

Date: 02 July 2024
Orbit: 624 x 656 km, 48.4° (Epoch: 13 July)

Event Time Altitude Azimuth Distance (km) Brightness Sun altitude
Rises 00:58:02 0° 292° (WNW) 2,906 10.5 -20.0°
Reaches altitude 10° 01:00:21 10° 291° (WNW) 2,000 9.7 -19.9°
Maximum altitude 01:04:56 74° 207° (SSW) 656 6.9 -19.6°
Drops below altitude 10° 01:09:32 10° 123° (ESE) 2,007 9.6 -19.3°
Sets 01:11:52 0° 121° (ESE) 2,917 10.4 -19.1°
